QPF
0.02 0.03 0.03 0.04 0.05 0.05 0.05 0.04 0.03 0.03 0.03 0.03 0.04 0.04 0.04 0.04 0.04 0.04 0.03 0.04 0.06 0.05 0.04 0.04 0.04 0.04 0.04 0.04 0.04 0.05 0.07 0.09 0.09 0.10 0.10 0.11 0.12 0.11 0.10 0.09 0.07 0.06 0.06
0.01 0.02 0.02 0.03 0.04 0.04 0.05 0.05 0.06 0.06 0.06 0.06 0.05 0.04 0.03 0.04 0.04 0.04 0.03 0.05 0.06 0.05 0.04 0.05 0.06 0.06 0.05 0.05 0.05 0.05 0.06 0.08 0.08 0.09 0.10 0.09 0.10 0.10 0.09 0.09 0.07 0.06 0.06
0.01 0.02 0.03 0.03 0.03 0.04 0.05 0.04 0.04 0.05 0.06 0.06 0.06 0.05 0.05 0.05 0.05 0.06 0.06 0.05 0.05 0.05 0.05 0.05 0.06 0.06 0.06 0.06 0.05 0.05 0.05 0.04 0.06 0.06 0.08 0.08 0.10 0.10 0.09 0.08 0.07 0.07 0.05
0.02 0.03 0.03 0.04 0.04 0.03 0.03 0.03 0.03 0.04 0.05 0.05 0.05 0.05 0.05 0.05 0.05 0.05 0.06 0.05 0.05 0.06 0.05 0.05 0.05 0.05 0.06 0.07 0.06 0.06 0.05 0.05 0.06 0.06 0.06 0.06 0.09 0.10 0.09 0.08 0.08 0.08 0.05
0.02 0.03 0.04 0.04 0.03 0.03 0.02 0.02 0.02 0.03 0.03 0.04 0.04 0.05 0.06 0.06 0.05 0.05 0.04 0.04 0.06 0.06 0.05 0.05 0.04 0.04 0.03 0.04 0.04 0.05 0.06 0.07 0.08 0.07 0.06 0.05 0.06 0.09 0.10 0.09 0.07 0.06 0.06
0.01 0.02 0.03 0.03 0.03 0.02 0.02 0.02 0.02 0.02 0.02 0.03 0.04 0.06 0.07 0.06 0.05 0.05 0.04 0.06 0.07 0.05 0.05 0.05 0.05 0.04 0.03 0.02 0.02 0.03 0.04 0.07 0.08 0.08 0.07 0.06 0.05 0.06 0.07 0.07 0.07 0.06 0.05
0.01 0.01 0.02 0.02 0.02 0.02 0.02 0.03 0.03 0.02 0.03 0.04 0.05 0.06 0.08 0.07 0.05 0.04 0.03 0.06 0.08 0.08 0.07 0.07 0.05 0.05 0.06 0.04 0.03 0.03 0.02 0.03 0.04 0.06 0.07 0.06 0.06 0.06 0.06 0.05 0.05 0.06 0.05
0.01 0.02 0.02 0.02 0.02 0.02 0.02 0.03 0.03 0.04 0.05 0.06 0.06 0.07 0.06 0.05 0.03 0.03 0.03 0.04 0.06 0.06 0.07 0.07 0.07 0.07 0.06 0.06 0.06 0.05 0.04 0.04 0.05 0.05 0.06 0.06 0.05 0.06 0.07 0.07 0.06 0.05 0.05
0.01 0.01 0.01 0.01 0.02 0.02 0.02 0.03 0.04 0.05 0.06 0.06 0.06 0.06 0.05 0.04 0.03 0.02 0.02 0.03 0.04 0.04 0.05 0.05 0.06 0.06 0.06 0.07 0.07 0.07 0.06 0.06 0.06 0.05 0.05 0.05 0.05 0.05 0.05 0.06 0.06 0.06 0.05
0.02 0.01 0.01 0.01 0.02 0.02 0.02 0.03 0.04 0.04 0.04 0.05 0.05 0.05 0.05 0.05 0.03 0.02 0.03 0.03 0.04 0.04 0.04 0.04 0.03 0.04 0.04 0.05 0.05 0.05 0.04 0.04 0.04 0.06 0.06 0.05 0.04 0.05 0.05 0.06 0.06 0.06 0.07
0.02 0.02 0.02 0.02 0.02 0.02 0.02 0.02 0.02 0.03 0.03 0.04 0.05 0.06 0.05 0.04 0.03 0.02 0.02 0.03 0.04 0.04 0.03 0.03 0.03 0.02 0.02 0.02 0.03 0.03 0.03 0.03 0.02 0.03 0.05 0.06 0.05 0.06 0.06 0.06 0.06 0.08 0.09
0.02 0.02 0.02 0.02 0.02 0.02 0.02 0.01 0.02 0.02 0.02 0.04 0.04 0.03 0.03 0.03 0.03 0.03 0.03 0.02 0.03 0.04 0.04 0.04 0.03 0.03 0.03 0.02 0.02 0.02 0.02 0.02 0.02 0.02 0.03 0.05 0.05 0.04 0.03 0.04 0.05 0.05 0.07
0.05 0.05 0.04 0.03 0.02 0.02 0.02 0.02 0.02 0.02 0.03 0.04 0.03 0.02 0.02 0.02 0.03 0.02 0.02 0.03 0.03 0.04 0.04 0.05 0.04 0.03 0.03 0.02 0.02 0.02 0.01 0.01 0.02 0.03 0.03 0.04 0.04 0.03 0.03 0.04 0.04 0.05 0.06
0.05 0.04 0.03 0.02 0.02 0.01 0.01 0.01 0.02 0.01 0.03 0.04 0.03 0.02 0.02 0.02 0.02 0.02 0.02 0.03 0.03 0.03 0.04 0.04 0.05 0.05 0.04 0.03 0.02 0.02 0.02 0.02 0.03 0.03 0.03 0.03 0.04 0.04 0.04 0.04 0.04 0.05 0.06
0.02 0.02 0.02 0.01 0.01 0.01 0.01 0.01 0.01 0.01 0.02 0.02 0.02 0.02 0.02 0.02 0.02 0.01 0.01 0.01 0.02 0.02 0.02 0.02 0.02 0.03 0.03 0.02 0.02 0.02 0.03 0.03 0.03 0.02 0.03 0.03 0.03 0.04 0.04 0.03 0.04 0.04 0.06
0.02 0.03 0.02 0.01 0.01 0.00 0.00 0.00 0.01 0.01 0.01 0.01 0.01 0.01 0.01 0.01 0.01 0.01 0.01 0.02 0.02 0.02 0.01 0.01 0.01 0.02 0.02 0.02 0.01 0.01 0.02 0.03 0.03 0.03 0.03 0.02 0.03 0.04 0.05 0.04 0.03 0.03 0.04
0.04 0.03 0.02 0.01 0.01 0.00 0.00 0.00 0.01 0.01 0.01 0.01 0.01 0.01 0.01 0.02 0.01 0.01 0.01 0.02 0.02 0.02 0.01 0.01 0.02 0.02 0.02 0.01 0.01 0.01 0.02 0.02 0.03 0.02 0.02 0.02 0.02 0.03 0.03 0.03 0.03 0.03 0.03
0.04 0.03 0.03 0.02 0.02 0.01 0.01 0.01 0.00 0.00 0.01 0.01 0.02 0.02 0.02 0.02 0.02 0.02 0.02 0.02 0.02 0.02 0.02 0.01 0.01 0.01 0.01 0.01 0.01 0.01 0.02 0.02 0.02 0.02 0.02 0.02 0.02 0.02 0.03 0.03 0.03 0.03 0.03
0.03 0.02 0.02 0.01 0.01 0.01 0.01 0.01 0.01 0.00 0.00 0.01 0.01 0.01 0.02 0.02 0.03 0.03 0.02 0.02 0.02 0.02 0.02 0.02 0.01 0.01 0.02 0.02 0.02 0.02 0.02 0.02 0.02 0.02 0.02 0.02 0.02 0.02 0.02 0.02 0.02 0.03 0.04
0.02 0.02 0.02 0.01 0.02 0.02 0.02 0.02 0.01 0.01 0.01 0.00 0.01 0.01 0.02 0.02 0.02 0.02 0.03 0.03 0.03 0.03 0.03 0.03 0.03 0.03 0.03 0.04 0.03 0.02 0.02 0.02 0.03 0.03 0.03 0.03 0.02 0.02 0.02 0.02 0.02 0.03 0.03
0.02 0.01 0.02 0.02 0.01 0.01 0.01 0.01 0.01 0.01 0.01 0.01 0.01 0.01 0.02 0.02 0.01 0.02 0.02 0.02 0.02 0.02 0.02 0.02 0.02 0.02 0.02 0.02 0.02 0.02 0.02 0.02 0.03 0.03 0.04 0.04 0.03 0.03 0.02 0.03 0.03 0.03 0.03
0.02 0.01 0.01 0.01 0.01 0.02 0.02 0.01 0.01 0.02 0.02 0.01 0.01 0.01 0.01 0.01 0.01 0.01 0.01 0.01 0.01 0.01 0.01 0.01 0.01 0.01 0.01 0.01 0.01 0.02 0.02 0.02 0.02 0.03 0.03 0.03 0.04 0.04 0.03 0.03 0.03 0.03 0.03
0.03 0.02 0.01 0.02 0.01 0.01 0.01 0.01 0.02 0.02 0.02 0.02 0.01 0.02 0.02 0.02 0.01 0.01 0.01 0.01 0.01 0.01 0.01 0.01 0.01 0.01 0.01 0.01 0.02 0.02 0.02 0.03 0.03 0.03 0.03 0.03 0.03 0.03 0.03 0.03 0.02 0.02 0.02
0.01 0.01 0.01 0.02 0.03 0.03 0.02 0.02 0.02 0.03 0.02 0.02 0.02 0.03 0.03 0.02 0.01 0.01 0.01 0.01 0.01 0.01 0.01 0.01 0.01 0.01 0.01 0.01 0.02 0.02 0.02 0.02 0.03 0.03 0.03 0.03 0.03 0.04 0.04 0.04 0.03 0.02 0.02
0.02 0.02 0.03 0.03 0.04 0.03 0.02 0.02 0.02 0.02 0.01 0.01 0.01 0.01 0.01 0.02 0.02 0.02 0.02 0.02 0.02 0.02 0.02 0.02 0.01 0.01 0.02 0.02 0.02 0.01 0.01 0.01 0.01 0.02 0.03 0.03 0.04 0.05 0.05 0.04 0.04 0.03 0.04
0.02 0.02 0.04 0.04 0.04 0.03 0.03 0.03 0.03 0.02 0.01 0.01 0.01 0.01 0.01 0.02 0.02 0.02 0.02 0.02 0.02 0.02 0.02 0.02 0.02 0.02 0.02 0.02 0.01 0.01 0.01 0.01 0.01 0.01 0.02 0.03 0.03 0.03 0.03 0.04 0.04 0.05 0.05
MSLP
1005.09 1005.54 1005.96 1006.32 1006.61 1006.82 1006.94 1007.00 1007.00 1006.97 1006.93 1006.89 1006.83 1006.77 1006.69 1006.58 1006.45 1006.28 1006.11 1005.95 1005.81 1005.71 1005.67 1005.69 1005.75 1005.82 1005.90 1005.96 1005.96 1005.91 1005.79 1005.61 1005.37 1005.10 1004.79 1004.48 1004.16 1003.85 1003.56 1003.30 1003.07 1002.89 1002.79
1005.03 1005.52 1005.96 1006.34 1006.64 1006.85 1006.99 1007.07 1007.10 1007.10 1007.08 1007.04 1006.99 1006.91 1006.80 1006.64 1006.44 1006.21 1005.96 1005.71 1005.48 1005.31 1005.19 1005.13 1005.13 1005.16 1005.22 1005.27 1005.30 1005.29 1005.24 1005.14 1004.99 1004.81 1004.60 1004.36 1004.09 1003.81 1003.51 1003.20 1002.90 1002.61 1002.36
1005.03 1005.58 1006.05 1006.43 1006.73 1006.94 1007.07 1007.15 1007.20 1007.21 1007.20 1007.17 1007.12 1007.03 1006.89 1006.69 1006.44 1006.15 1005.83 1005.51 1005.22 1004.98 1004.79 1004.68 1004.63 1004.62 1004.65 1004.70 1004.73 1004.75 1004.74 1004.71 1004.63 1004.54 1004.40 1004.24 1004.04 1003.80 1003.51 1003.19 1002.84 1002.47 1002.13
1005.12 1005.72 1006.21 1006.59 1006.86 1007.04 1007.15 1007.22 1007.25 1007.26 1007.25 1007.23 1007.17 1007.06 1006.90 1006.67 1006.38 1006.05 1005.69 1005.33 1004.99 1004.71 1004.48 1004.33 1004.24 1004.21 1004.22 1004.24 1004.27 1004.29 1004.29 1004.28 1004.24 1004.19 1004.12 1004.01 1003.87 1003.68 1003.43 1003.13 1002.77 1002.38 1001.98
1005.30 1005.93 1006.42 1006.78 1007.01 1007.14 1007.21 1007.23 1007.23 1007.22 1007.20 1007.17 1007.09 1006.97 1006.79 1006.54 1006.23 1005.87 1005.49 1005.11 1004.77 1004.47 1004.24 1004.09 1003.99 1003.94 1003.92 1003.92 1003.91 1003.90 1003.87 1003.84 1003.79 1003.74 1003.68 1003.60 1003.50 1003.35 1003.15 1002.90 1002.58 1002.22 1001.83
1005.57 1006.20 1006.67 1006.97 1007.14 1007.20 1007.21 1007.18 1007.14 1007.10 1007.05 1007.00 1006.91 1006.76 1006.56 1006.30 1005.97 1005.61 1005.23 1004.86 1004.54 1004.27 1004.07 1003.93 1003.84 1003.79 1003.76 1003.73 1003.67 1003.60 1003.51 1003.40 1003.29 1003.19 1003.09 1003.00 1002.90 1002.79 1002.64 1002.44 1002.20 1001.91 1001.59
1005.93 1006.52 1006.92 1007.15 1007.23 1007.22 1007.16 1007.07 1006.99 1006.91 1006.84 1006.76 1006.64 1006.49 1006.27 1005.99 1005.66 1005.30 1004.94 1004.60 1004.32 1004.10 1003.95 1003.85 1003.80 1003.77 1003.73 1003.66 1003.55 1003.39 1003.20 1002.99 1002.78 1002.58 1002.40 1002.26 1002.14 1002.03 1001.91 1001.79 1001.63 1001.44 1001.23
1006.37 1006.87 1007.17 1007.30 1007.30 1007.21 1007.08 1006.94 1006.81 1006.71 1006.61 1006.51 1006.38 1006.21 1005.98 1005.69 1005.36 1005.01 1004.67 1004.37 1004.14 1003.98 1003.89 1003.86 1003.85 1003.85 1003.81 1003.71 1003.55 1003.31 1003.02 1002.69 1002.35 1002.03 1001.74 1001.51 1001.33 1001.20 1001.11 1001.03 1000.95 1000.88 1000.79
1006.87 1007.23 1007.41 1007.44 1007.34 1007.18 1007.00 1006.83 1006.68 1006.56 1006.46 1006.35 1006.21 1006.02 1005.77 1005.47 1005.14 1004.80 1004.48 1004.22 1004.03 1003.93 1003.91 1003.93 1003.98 1004.01 1003.99 1003.88 1003.68 1003.37 1002.99 1002.55 1002.08 1001.64 1001.24 1000.91 1000.66 1000.49 1000.38 1000.33 1000.32 1000.34 1000.37
1007.40 1007.61 1007.66 1007.57 1007.40 1007.19 1006.97 1006.79 1006.64 1006.52 1006.43 1006.32 1006.17 1005.97 1005.72 1005.41 1005.07 1004.73 1004.42 1004.18 1004.03 1003.97 1004.00 1004.08 1004.17 1004.24 1004.24 1004.14 1003.92 1003.57 1003.13 1002.61 1002.06 1001.51 1001.01 1000.59 1000.27 1000.04 999.91 999.87 999.89 999.96 1000.07
1007.93 1007.98 1007.90 1007.72 1007.49 1007.25 1007.03 1006.85 1006.72 1006.63 1006.55 1006.45 1006.31 1006.11 1005.84 1005.52 1005.16 1004.81 1004.50 1004.27 1004.13 1004.10 1004.15 1004.27 1004.40 1004.50 1004.53 1004.45 1004.24 1003.89 1003.43 1002.87 1002.28 1001.68 1001.12 1000.63 1000.25 999.98 999.82 999.76 999.78 999.88 1000.03
1008.42 1008.33 1008.14 1007.90 1007.63 1007.38 1007.18 1007.03 1006.93 1006.87 1006.81 1006.73 1006.60 1006.39 1006.12 1005.78 1005.41 1005.04 1004.72 1004.47 1004.33 1004.29 1004.35 1004.48 1004.63 1004.75 1004.81 1004.76 1004.59 1004.27 1003.83 1003.30 1002.71 1002.11 1001.54 1001.04 1000.63 1000.32 1000.13 1000.04 1000.05 1000.13 1000.28
1008.85 1008.65 1008.39 1008.10 1007.82 1007.59 1007.41 1007.30 1007.24 1007.21 1007.18 1007.12 1006.99 1006.79 1006.50 1006.15 1005.76 1005.37 1005.02 1004.75 1004.59 1004.53 1004.57 1004.68 1004.83 1004.97 1005.05 1005.04 1004.91 1004.65 1004.27 1003.81 1003.28 1002.73 1002.19 1001.71 1001.31 1001.00 1000.79 1000.67 1000.65 1000.70 1000.82
1009.22 1008.94 1008.64 1008.33 1008.07 1007.85 1007.71 1007.63 1007.60 1007.60 1007.59 1007.54 1007.42 1007.21 1006.92 1006.55 1006.15 1005.74 1005.37 1005.07 1004.88 1004.78 1004.79 1004.87 1005.00 1005.13 1005.22 1005.24 1005.16 1004.97 1004.68 1004.30 1003.87 1003.40 1002.94 1002.52 1002.16 1001.87 1001.66 1001.53 1001.47 1001.49 1001.56
1009.51 1009.21 1008.89 1008.59 1008.35 1008.16 1008.05 1008.00 1007.99 1008.01 1008.00 1007.95 1007.83 1007.62 1007.32 1006.95 1006.54 1006.13 1005.74 1005.42 1005.19 1005.06 1005.02 1005.06 1005.15 1005.26 1005.34 1005.38 1005.33 1005.21 1005.00 1004.72 1004.38 1004.02 1003.66 1003.31 1003.01 1002.76 1002.57 1002.44 1002.37 1002.35 1002.38
1009.77 1009.46 1009.15 1008.88 1008.66 1008.50 1008.41 1008.38 1008.38 1008.39 1008.38 1008.32 1008.19 1007.98 1007.69 1007.33 1006.93 1006.52 1006.13 1005.80 1005.55 1005.38 1005.30 1005.29 1005.34 1005.40 1005.46 1005.49 1005.47 1005.38 1005.23 1005.03 1004.78 1004.51 1004.24 1003.98 1003.74 1003.54 1003.37 1003.25 1003.17 1003.13 1003.13
1010.00 1009.71 1009.43 1009.19 1009.00 1008.87 1008.79 1008.76 1008.76 1008.76 1008.74 1008.67 1008.53 1008.32 1008.04 1007.70 1007.32 1006.94 1006.57 1006.24 1005.98 1005.80 1005.68 1005.63 1005.63 1005.64 1005.66 1005.66 1005.63 1005.55 1005.43 1005.27 1005.09 1004.88 1004.67 1004.46 1004.27 1004.11 1003.97 1003.87 1003.79 1003.74 1003.72
1010.24 1009.97 1009.72 1009.52 1009.36 1009.25 1009.19 1009.17 1009.16 1009.15 1009.11 1009.03 1008.89 1008.68 1008.42 1008.11 1007.77 1007.42 1007.09 1006.79 1006.54 1006.35 1006.22 1006.13 1006.08 1006.05 1006.02 1005.98 1005.91 1005.82 1005.69 1005.53 1005.36 1005.17 1004.98 1004.80 1004.63 1004.49 1004.37 1004.27 1004.19 1004.15 1004.12
1010.48 1010.24 1010.03 1009.86 1009.74 1009.65 1009.61 1009.59 1009.58 1009.56 1009.51 1009.43 1009.30 1009.11 1008.88 1008.60 1008.31 1008.01 1007.72 1007.46 1007.24 1007.06 1006.92 1006.82 1006.73 1006.66 1006.58 1006.49 1006.38 1006.24 1006.07 1005.89 1005.69 1005.48 1005.27 1005.08 1004.90 1004.75 1004.62 1004.51 1004.44 1004.39 1004.38
1010.74 1010.52 1010.35 1010.21 1010.12 1010.06 1010.04 1010.03 1010.03 1010.02 1009.98 1009.90 1009.78 1009.62 1009.42 1009.19 1008.94 1008.69 1008.46 1008.24 1008.05 1007.90 1007.77 1007.66 1007.56 1007.46 1007.34 1007.21 1007.05 1006.86 1006.64 1006.40 1006.14 1005.88 1005.63 1005.39 1005.17 1004.98 1004.83 1004.71 1004.63 1004.58 1004.57
1010.99 1010.80 1010.65 1010.54 1010.48 1010.46 1010.47 1010.48 1010.50 1010.50 1010.48 1010.42 1010.32 1010.18 1010.01 1009.83 1009.62 1009.42 1009.23 1009.06 1008.92 1008.79 1008.68 1008.58 1008.48 1008.37 1008.23 1008.07 1007.87 1007.63 1007.36 1007.06 1006.75 1006.42 1006.11 1005.80 1005.53 1005.30 1005.10 1004.96 1004.86 1004.81 1004.80
1011.25 1011.06 1010.92 1010.84 1010.81 1010.82 1010.85 1010.90 1010.94 1010.97 1010.97 1010.93 1010.85 1010.75 1010.61 1010.45 1010.28 1010.12 1009.97 1009.83 1009.72 1009.63 1009.54 1009.47 1009.38 1009.28 1009.14 1008.97 1008.75 1008.49 1008.18 1007.84 1007.47 1007.09 1006.71 1006.35 1006.02 1005.73 1005.50 1005.32 1005.20 1005.14 1005.14
1011.49 1011.30 1011.17 1011.10 1011.09 1011.12 1011.18 1011.25 1011.32 1011.37 1011.39 1011.37 1011.32 1011.23 1011.11 1010.97 1010.83 1010.69 1010.56 1010.45 1010.36 1010.29 1010.24 1010.19 1010.13 1010.05 1009.93 1009.77 1009.56 1009.30 1008.98 1008.62 1008.23 1007.81 1007.39 1006.98 1006.61 1006.28 1006.01 1005.81 1005.67 1005.60 1005.59
1011.75 1011.54 1011.40 1011.33 1011.32 1011.36 1011.43 1011.51 1011.59 1011.66 1011.70 1011.70 1011.66 1011.58 1011.47 1011.35 1011.21 1011.08 1010.96 1010.86 1010.78 1010.73 1010.70 1010.67 1010.64 1010.59 1010.51 1010.39 1010.20 1009.96 1009.66 1009.31 1008.91 1008.49 1008.05 1007.62 1007.23 1006.88 1006.59 1006.37 1006.22 1006.14 1006.13
1012.03 1011.80 1011.64 1011.55 1011.53 1011.55 1011.62 1011.70 1011.78 1011.85 1011.89 1011.90 1011.87 1011.79 1011.69 1011.56 1011.43 1011.29 1011.17 1011.07 1011.00 1010.95 1010.93 1010.92 1010.92 1010.90 1010.86 1010.77 1010.63 1010.43 1010.16 1009.84 1009.46 1009.05 1008.62 1008.20 1007.80 1007.44 1007.15 1006.92 1006.76 1006.68 1006.65
1012.37 1012.12 1011.93 1011.81 1011.76 1011.76 1011.80 1011.86 1011.93 1011.99 1012.03 1012.03 1012.00 1011.93 1011.82 1011.70 1011.55 1011.41 1011.28 1011.18 1011.10 1011.05 1011.03 1011.03 1011.04 1011.05 1011.03 1010.98 1010.87 1010.71 1010.48 1010.19 1009.85 1009.47 1009.06 1008.65 1008.26 1007.91 1007.62 1007.38 1007.22 1007.12 1007.09
Thickness
5764 5761 5758 5755 5752 5750 5747 5744 5742 5740 5738 5735 5733 5731 5730 5728 5725 5723 5722 5720 5719 5718 5717 5716 5715 5716 5716 5716 5716 5716 5713 5711 5706 5708 5711 5712 5711 5710 5711 5712 5712 5711 5710
5763 5759 5755 5752 5750 5747 5744 5741 5739 5736 5734 5732 5730 5727 5725 5723 5721 5718 5716 5716 5714 5713 5712 5711 5710 5711 5709 5709 5708 5708 5707 5706 5702 5699 5701 5703 5704 5705 5705 5705 5706 5706 5705
5762 5756 5752 5749 5746 5743 5740 5738 5735 5733 5730 5728 5725 5722 5720 5717 5715 5713 5712 5710 5709 5709 5708 5706 5705 5704 5702 5702 5701 5701 5701 5701 5698 5695 5694 5696 5696 5698 5697 5698 5699 5698 5698
5758 5753 5748 5745 5742 5739 5737 5734 5731 5728 5725 5722 5720 5717 5715 5713 5710 5708 5706 5705 5704 5703 5702 5701 5700 5698 5696 5695 5695 5693 5693 5692 5691 5689 5687 5687 5687 5689 5688 5687 5687 5688 5688
5753 5747 5744 5741 5738 5735 5732 5729 5726 5723 5721 5718 5715 5712 5710 5707 5704 5701 5700 5700 5697 5696 5695 5695 5693 5692 5690 5688 5687 5685 5685 5684 5682 5681 5679 5679 5679 5678 5677 5678 5677 5678 5679
5746 5742 5739 5736 5733 5730 5728 5725 5721 5718 5715 5712 5709 5705 5702 5700 5696 5694 5692 5692 5691 5688 5687 5686 5686 5684 5683 5681 5680 5678 5677 5675 5673 5672 5671 5670 5670 5671 5671 5671 5669 5668 5667
5740 5737 5733 5730 5726 5724 5723 5719 5715 5712 5709 5705 5702 5698 5694 5690 5688 5686 5685 5684 5683 5681 5680 5679 5678 5678 5675 5673 5672 5672 5670 5669 5668 5665 5664 5663 5663 5664 5663 5662 5662 5660 5660
5734 5731 5728 5724 5721 5718 5715 5712 5709 5706 5702 5699 5695 5692 5688 5685 5682 5680 5678 5677 5677 5675 5674 5672 5670 5668 5667 5664 5663 5663 5662 5662 5662 5661 5660 5659 5659 5658 5657 5656 5655 5655 5656
5728 5724 5721 5718 5715 5711 5708 5705 5703 5699 5696 5693 5690 5686 5682 5679 5676 5674 5671 5670 5669 5668 5668 5666 5664 5661 5658 5656 5654 5654 5653 5653 5655 5655 5654 5653 5652 5651 5650 5648 5647 5645 5645
5722 5719 5716 5713 5709 5705 5702 5699 5696 5693 5690 5687 5684 5681 5678 5674 5671 5667 5664 5664 5662 5661 5660 5659 5657 5653 5650 5647 5645 5644 5643 5644 5645 5645 5645 5645 5645 5644 5643 5642 5640 5638 5638
5718 5714 5710 5706 5702 5699 5695 5692 5689 5686 5683 5681 5678 5675 5672 5668 5665 5661 5658 5656 5654 5652 5651 5650 5648 5645 5642 5640 5637 5636 5635 5635 5636 5636 5637 5638 5638 5637 5637 5636 5635 5633 5632
5711 5707 5703 5699 5696 5694 5689 5685 5683 5679 5676 5674 5671 5668 5666 5663 5659 5655 5651 5648 5646 5644 5643 5642 5639 5637 5635 5632 5630 5629 5628 5627 5627 5628 5628 5629 5629 5629 5630 5630 5629 5629 5628
5703 5699 5696 5693 5689 5686 5682 5679 5675 5672 5669 5667 5664 5661 5660 5658 5654 5650 5646 5643 5640 5637 5636 5633 5631 5629 5627 5626 5624 5622 5620 5619 5619 5618 5618 5619 5620 5621 5621 5621 5621 5621 5621
5695 5692 5689 5686 5683 5680 5677 5674 5670 5667 5663 5660 5657 5655 5654 5652 5647 5643 5639 5637 5633 5631 5628 5626 5624 5622 5620 5618 5616 5614 5612 5611 5610 5610 5610 5611 5612 5612 5611 5611 5611 5611 5610
5689 5685 5683 5681 5678 5674 5671 5668 5665 5661 5658 5653 5651 5649 5647 5643 5638 5634 5632 5629 5626 5622 5619 5619 5617 5615 5612 5610 5608 5606 5605 5604 5602 5601 5602 5602 5603 5602 5602 5603 5602 5602 5601
5682 5680 5679 5677 5674 5671 5667 5662 5659 5655 5651 5648 5645 5642 5639 5635 5631 5628 5625 5622 5618 5614 5611 5610 5609 5608 5605 5603 5601 5599 5598 5596 5595 5594 5594 5593 5594 5594 5594 5594 5594 5594 5593
5678 5676 5674 5672 5669 5666 5663 5658 5654 5649 5645 5643 5640 5636 5632 5628 5626 5622 5619 5615 5612 5607 5605 5604 5603 5601 5600 5597 5595 5593 5591 5590 5588 5587 5586 5586 5586 5586 5587 5586 5587 5586 5587
5674 5671 5669 5666 5664 5661 5658 5654 5651 5647 5643 5640 5635 5631 5627 5623 5619 5615 5612 5608 5607 5604 5602 5599 5597 5596 5594 5591 5589 5587 5586 5585 5583 5582 5581 5580 5580 5580 5580 5579 5580 5580 5580
5668 5666 5663 5661 5659 5656 5653 5650 5646 5643 5639 5636 5633 5626 5621 5617 5613 5608 5604 5602 5601 5599 5597 5594 5592 5590 5588 5585 5583 5581 5579 5578 5577 5576 5575 5574 5574 5574 5574 5574 5574 5573 5574
5662 5660 5656 5654 5652 5649 5646 5643 5640 5636 5633 5630 5626 5622 5617 5613 5609 5605 5600 5598 5596 5593 5591 5590 5587 5585 5582 5579 5576 5574 5572 5571 5570 5569 5568 5568 5567 5567 5567 5567 5567 5568 5568
5658 5655 5651 5649 5646 5643 5640 5636 5633 5629 5627 5624 5620 5616 5610 5608 5605 5601 5597 5593 5591 5588 5586 5584 5582 5579 5576 5573 5570 5568 5566 5564 5563 5562 5561 5560 5560 5560 5560 5560 5561 5562 5563
5651 5649 5647 5643 5640 5636 5633 5630 5627 5624 5620 5616 5613 5609 5604 5601 5599 5596 5593 5590 5587 5584 5581 5578 5575 5572 5569 5566 5564 5562 5559 5557 5555 5554 5553 5553 5553 5553 5553 5553 5554 5555 5556
5647 5644 5641 5638 5634 5629 5626 5624 5620 5616 5613 5610 5606 5603 5598 5595 5592 5589 5586 5584 5581 5579 5576 5572 5568 5566 5563 5561 5558 5555 5552 5549 5547 5547 5546 5546 5546 5546 5546 5547 5548 5548 5549
5642 5639 5636 5632 5629 5625 5621 5618 5614 5610 5607 5603 5600 5596 5592 5588 5585 5582 5580 5577 5574 5572 5569 5566 5563 5560 5558 5555 5552 5549 5545 5542 5540 5540 5540 5539 5539 5540 5540 5540 5541 5542 5543
5636 5633 5630 5627 5623 5620 5615 5612 5608 5604 5601 5597 5594 5590 5586 5582 5579 5576 5573 5571 5568 5565 5563 5560 5557 5555 5552 5549 5546 5542 5538 5536 5535 5534 5533 5534 5534 5534 5535 5535 5536 5537 5537
5630 5627 5625 5621 5618 5614 5609 5605 5602 5598 5595 5591 5588 5584 5580 5576 5574 5571 5568 5565 5562 5560 5557 5554 5552 5550 5547 5544 5540 5536 5533 5531 5530 5528 5528 5528 5529 5529 5530 5531 5531 5531 5532